Regional Weather Roundup
Issued by NWS

Home | Current Version | Previous Version | Graphics & Text | Print | Product List | Glossary On
Versions: 1 2 3 4 5 6 7 8 9 10 11 12 13 14 15 16 17 18 19 20 21 22 23 24 25 26 27 28 29 30 31 32 33 34 35 36 37 38 39 40 41 42 43 44 45 46 47 48 49 50
000
ASUS43 KLMK 271410
RWRKY
KENTUCKY REGIONAL WEATHER ROUNDUP
NATIONAL WEATHER SERVICE LOUISVILLE KY
1000 AM EDT WED JUL 27 2016

NOTE "FAIR" INDICATES FEW OR NO CLOUDS BELOW 12,000 FEET
WITH NO SIGNIFICANT WEATHER AND/OR OBSTRUCTIONS TO VISIBILITY.

KYZ001>023-026-027-061>063-070>075-271500-
WESTERN AND SOUTH CENTRAL KENTUCKY

CITY           SKY/WX    TMP DP  RH WIND       PRES   REMARKS
PADUCAH        SUNNY     84  76  76 E3        29.97F HX  93
HENDERSON      CLOUDY    79  75  89 SE7       30.00R
OWENSBORO      CLOUDY    79  79 100 SE10      30.03R FOG
HOPKINSVILLE   SUNNY     82  74  77 VRB3      30.00S
BOWLING GREEN  PTSUNNY   82  74  76 S5        30.03R
GLASGOW        SUNNY     81  73  77 CALM      30.04R
$$

KYZ024-025-028>034-038-045-046-053-271500-
NORTH CENTRAL KENTUCKY

CITY           SKY/WX    TMP DP  RH WIND       PRES   REMARKS
LOUISVILLE/SDF CLOUDY    84  74  71 NW3       30.01R HX  91
LOUISVILLE/LOU SUNNY     84  74  71 CALM      30.02R HX  91
FORT KNOX      PTSUNNY   81  75  83 S3        30.02R
$$

KYZ035>037-039>044-047>052-055>060-089>105-271500-
NORTHEAST KENTUCKY

CITY           SKY/WX    TMP DP  RH WIND       PRES   REMARKS
LEXINGTON      PTSUNNY   81  74  79 W3        30.04S
COVINGTON      CLOUDY    78  73  84 N3        30.04R
FRANKFORT      MOSUNNY   81  73  76 CALM      30.02S
$$

KYZ054-064>069-076>088-106>120-271500-
SOUTHEAST KENTUCKY

CITY           SKY/WX    TMP DP  RH WIND       PRES   REMARKS
JACKSON        CLOUDY    80  73  79 CALM      30.06S
LONDON         MOSUNNY   82  71  69 CALM      30.06F
SOMERSET       PTSUNNY   77  75  94 CALM      30.07R
MIDDLESBORO    SUNNY     81  74  79 CALM      30.07S
MONTICELLO     MOSUNNY  N/A N/A N/A N13       30.07S
$$




USA.gov is the U.S. government's official web portal to all federal, state and local government web resources and services.